LIPX Weather Reports


time (UTC)temp
C
wind
direction
speed
KPH
gust
KPH
rain 1hr
cm
rain 24hr
cm
rain mn
cm
humidity
%
barometer
mb
20260902104503 28 0 4.8 0.0 0.00 0.00 0.00 42 1019.0
20260902093004 28 0 3.2 0.0 0.00 0.00 0.00 45 1019.0
20260902090005 27 0 3.2 0.0 0.00 0.00 0.00 42 1019.0
20260902084503 27 0 1.6 0.0 0.00 0.00 0.00 48 1019.0
20260902081503 26 0 3.2 0.0 0.00 0.00 0.00 57 1019.0
20260902080004 26 0 3.2 0.0 0.00 0.00 0.00 57 1019.0
20260902074503 23 0 3.2 0.0 0.00 0.00 0.00 69 1019.0
20260902071503 22 0 3.2 0.0 0.00 0.00 0.00 73 1018.0
20260902070006 22 0 3.2 0.0 0.00 0.00 0.00 73 1018.0
20260902063004 21 0 3.2 0.0 0.00 0.00 0.00 77 1018.0
20260902061502 18 280 4.8 0.0 0.00 0.00 0.00 82 1018.0
20260902060004 18 280 4.8 0.0 0.00 0.00 0.00 82 1018.0
20260902053003 18 0 3.2 0.0 0.00 0.00 0.00 82 1018.0
20260902051503 17 100 3.2 0.0 0.00 0.00 0.00 93 1018.0
20260902041504 21 310 3.2 0.0 0.00 0.00 0.00 73 1018.0
20260902040003 21 310 3.2 0.0 0.00 0.00 0.00 73 1018.0
20260902034504 21 0 3.2 0.0 0.00 0.00 0.00 73 1018.0
20260902033004 21 0 3.2 0.0 0.00 0.00 0.00 73 1018.0
20260902030005 20 340 4.8 0.0 0.00 0.00 0.00 82 1018.0
20260902020004 21 350 4.8 0.0 0.00 0.00 0.00 77 1018.0
20260902014503 21 20 4.8 0.0 0.00 0.00 0.00 77 1018.0
20260902013003 21 20 4.8 0.0 0.00 0.00 0.00 77 1018.0
20260902011503 21 350 3.2 0.0 0.00 0.00 0.00 73 1018.0
20260902010003 21 350 3.2 0.0 0.00 0.00 0.00 73 1018.0
20260902003004 21 340 8.0 0.0 0.00 0.00 0.00 77 1018.0
20260902000004 21 350 8.0 0.0 0.00 0.00 0.00 77 1018.0
20260901234503 21 360 9.7 0.0 0.00 0.00 0.00 77 1018.0
20260901233003 21 360 9.7 0.0 0.00 0.00 0.00 77 1018.0
20260901231504 21 360 9.7 0.0 0.00 0.00 0.00 77 1018.0
20260901220004 22 0 1.6 0.0 0.00 0.00 0.00 73 1018.0
20260901213003 22 70 3.2 0.0 0.00 0.00 0.00 64 1018.0
20260901211503 23 50 4.8 0.0 0.00 0.00 0.00 60 1017.0
20260901210003 23 50 4.8 0.0 0.00 0.00 0.00 60 1017.0
20260901204503 25 0 3.2 0.0 0.00 0.00 0.00 61 1017.0
20260901203004 25 0 3.2 0.0 0.00 0.00 0.00 61 1017.0
20260901200003 25 120 8.0 0.0 0.00 0.00 0.00 61 1017.0
20260901194503 26 100 8.0 0.0 0.00 0.00 0.00 57 1017.0
20260901190004 26 110 4.8 0.0 0.00 0.00 0.00 57 1017.0
20260901184503 27 110 8.0 0.0 0.00 0.00 0.00 54 1016.0
20260901180004 28 110 9.7 0.0 0.00 0.00 0.00 45 1016.0
20260901171503 28 120 14.5 0.0 0.00 0.00 0.00 48 1016.0
20260901170004 28 120 14.5 0.0 0.00 0.00 0.00 48 1016.0
20260901163006 30 120 14.5 0.0 0.00 0.00 0.00 45 1016.0
20260901153003 30 90 14.5 0.0 0.00 0.00 0.00 51 1017.0
20260901150004 30 110 1.6 0.0 0.00 0.00 0.00 51 1017.0
20260901144503 30 100 14.5 0.0 0.00 0.00 0.00 51 1017.0
20260901143004 30 100 14.5 0.0 0.00 0.00 0.00 51 1017.0
20260901141503 30 110 1.6 0.0 0.00 0.00 0.00 48 1017.0
20260901140004 30 110 1.6 0.0 0.00 0.00 0.00 48 1017.0
20260901134503 30 110 19.3 0.0 0.00 0.00 0.00 45 1017.0
20260901131503 28 110 20.9 0.0 0.00 0.00 0.00 45 1017.0
20260901123004 30 90 19.3 0.0 0.00 0.00 0.00 42 1017.0
20260901120004 28 110 20.9 0.0 0.00 0.00 0.00 45 1017.0
20260901114503 30 70 22.5 0.0 0.00 0.00 0.00 37 1018.0
20260901113003 30 70 22.5 0.0 0.00 0.00 0.00 37 1018.0
20260901111503 28 80 20.9 0.0 0.00 0.00 0.00 42 1018.0